Vorticity
7 7 7 6 6 7 7 7 7 7 6 5 4 5 7 7 7 5 2 3 8 10 9 6 3 4 3 3 3 2 4 1 5
4 7 8 7 7 9 9 9 9 8 7 7 7 7 7 4 2 1 3 3 5 10 11 14 19 14 7 7 6 6 6 7 7
8 8 7 8 7 9 9 9 10 9 7 7 7 6 4 2 1 -0 0 1 3 9 6 6 11 16 16 10 7 5 5 5 1
11 9 9 10 8 8 7 8 7 8 8 8 7 5 2 1 -0 1 1 2 2 3 9 7 4 8 13 14 10 9 9 10 12
8 9 10 9 11 10 7 7 7 7 6 7 7 3 1 0 0 1 2 2 3 3 3 8 7 2 4 11 13 12 10 3 5
7 8 7 8 9 9 9 8 7 6 6 6 4 3 1 0 -0 -0 1 5 3 4 2 5 10 5 3 2 2 1 4 0 4
7 6 6 6 5 9 11 14 13 12 10 6 5 5 3 2 2 3 4 4 5 5 3 3 5 8 7 3 3 5 4 0 5
3 1 9 6 7 1 2 3 4 6 9 13 14 13 11 10 9 9 9 9 8 7 2 5 2 5 5 11 6 4 4 1 8
3 4 5 11 1 6 6 5 4 5 5 6 8 9 11 12 9 8 10 12 11 12 9 6 4 6 8 6 7 10 4 5 7
7 3 4 12 4 9 -1 3 6 6 6 7 6 6 5 6 7 8 9 11 13 13 15 12 7 12 8 9 11 10 12 9 7
5 7 4 7 7 7 6 8 7 8 9 8 7 7 6 5 7 9 8 10 10 9 10 8 8 8 8 13 13 9 7 7 6
7 6 6 7 6 6 7 7 5 6 7 10 10 9 7 9 9 7 7 11 8 8 7 7 8 9 8 7 8 9 8 5 4
7 6 5 6 6 6 5 3 5 5 6 5 6 8 9 7 12 8 6 10 12 6 6 7 5 -0 -1 -2 -1 3 3 5 6
5 5 5 5 6 6 4 8 5 3 8 7 4 3 4 8 10 12 7 5 14 12 5 1 -2 2 6 8 7 5 4 8 8
8 5 3 3 3 3 3 1 2 7 3 2 3 4 4 6 8 9 10 7 6 11 12 9 8 8 6 7 7 8 9 10 8
8 8 8 8 8 8 9 9 7 9 8 6 7 7 6 4 9 7 6 9 8 7 5 4 5 5 5 6 6 9 11 9 10
3 5 4 6 6 8 7 6 7 6 10 13 12 9 9 10 7 9 10 9 7 6 7 8 8 10 11 11 10 10 10 12 14
2 4 4 5 6 3 4 4 4 5 4 8 9 7 6 5 7 7 7 7 7 7 8 9 10 10 9 8 7 6 5 5 4
4 3 4 6 2 7 7 5 4 5 5 5 6 7 8 5 4 5 5 6 7 8 8 9 9 9 10 11 10 10 10 10 10
4 2 0 -1 -0 2 3 6 5 5 5 5 4 5 8 8 6 6 6 6 7 7 6 6 6 5 5 5 5 5 7 9 11
Height
5853 5853 5853 5854 5854 5854 5854 5855 5855 5854 5854 5854 5853 5853 5852 5852 5852 5851 5850 5849 5848 5847 5845 5844 5843 5843 5842 5841 5841 5841 5841 5840 5839
5850 5849 5850 5850 5850 5850 5850 5851 5851 5851 5851 5850 5850 5849 5849 5849 5848 5847 5847 5846 5844 5842 5841 5840 5838 5838 5837 5837 5836 5836 5836 5835 5835
5846 5846 5846 5846 5846 5846 5846 5847 5847 5847 5847 5847 5846 5846 5846 5845 5845 5844 5843 5842 5841 5838 5837 5837 5835 5832 5832 5832 5831 5831 5831 5830 5830
5843 5843 5843 5842 5842 5842 5842 5843 5843 5843 5843 5843 5842 5842 5842 5841 5841 5840 5839 5838 5836 5836 5834 5833 5832 5829 5827 5827 5827 5827 5827 5826 5826
5840 5840 5839 5839 5839 5838 5838 5838 5838 5839 5839 5838 5838 5838 5837 5837 5836 5836 5834 5834 5832 5831 5830 5829 5828 5825 5824 5823 5823 5822 5822 5822 5821
5836 5836 5835 5835 5835 5835 5835 5834 5834 5834 5834 5833 5833 5833 5832 5832 5831 5830 5830 5829 5827 5826 5825 5824 5823 5821 5820 5819 5819 5818 5817 5817 5816
5832 5832 5832 5831 5831 5830 5830 5830 5830 5830 5830 5829 5828 5828 5827 5827 5825 5825 5823 5822 5821 5819 5820 5818 5817 5816 5815 5814 5813 5813 5813 5812 5811
5828 5828 5828 5828 5827 5827 5826 5826 5825 5825 5825 5823 5822 5822 5821 5820 5819 5818 5817 5815 5814 5813 5813 5812 5811 5810 5809 5808 5808 5808 5807 5806 5806
5824 5823 5823 5823 5822 5822 5822 5821 5821 5821 5820 5818 5817 5816 5814 5813 5812 5811 5810 5808 5807 5805 5805 5804 5804 5804 5803 5802 5801 5801 5800 5800 5800
5818 5818 5818 5817 5817 5817 5817 5816 5816 5815 5815 5813 5812 5811 5809 5807 5805 5804 5802 5801 5800 5799 5798 5797 5797 5797 5796 5794 5794 5793 5793 5793 5792
5812 5812 5812 5812 5811 5812 5811 5811 5810 5809 5809 5808 5806 5804 5802 5801 5799 5798 5796 5795 5793 5793 5792 5791 5791 5790 5789 5788 5788 5786 5786 5786 5785
5806 5806 5806 5805 5805 5805 5805 5805 5804 5803 5802 5801 5800 5798 5797 5794 5793 5791 5790 5788 5787 5786 5786 5785 5784 5783 5782 5782 5782 5781 5780 5779 5777
5799 5799 5799 5799 5799 5799 5799 5798 5798 5797 5796 5795 5794 5792 5790 5788 5786 5784 5783 5781 5781 5780 5779 5778 5777 5776 5775 5775 5774 5773 5771 5770 5768
5792 5792 5793 5794 5793 5793 5793 5792 5791 5790 5788 5787 5786 5784 5783 5781 5779 5777 5775 5774 5773 5772 5772 5771 5770 5768 5767 5766 5764 5763 5762 5760 5758
5786 5786 5786 5787 5786 5786 5786 5785 5784 5782 5781 5780 5779 5777 5775 5773 5771 5770 5768 5767 5765 5764 5762 5761 5760 5759 5757 5755 5753 5752 5750 5749 5747
5778 5779 5779 5779 5779 5779 5779 5778 5776 5775 5774 5773 5771 5769 5767 5765 5764 5761 5760 5758 5756 5754 5753 5752 5750 5748 5746 5744 5742 5740 5737 5736 5734
5771 5771 5771 5772 5772 5772 5771 5770 5768 5767 5766 5765 5763 5762 5760 5758 5756 5753 5751 5749 5747 5745 5744 5742 5740 5737 5735 5733 5730 5728 5725 5723 5721
5762 5764 5765 5765 5765 5764 5764 5761 5760 5759 5758 5757 5755 5753 5752 5749 5747 5745 5743 5740 5738 5735 5734 5733 5730 5728 5725 5722 5719 5717 5714 5711 5709
5756 5756 5757 5757 5756 5755 5755 5753 5752 5751 5750 5748 5747 5745 5744 5741 5740 5737 5734 5731 5728 5726 5723 5721 5719 5716 5714 5711 5708 5705 5701 5698 5695
5745 5745 5746 5748 5747 5746 5746 5746 5744 5742 5741 5740 5739 5737 5734 5732 5730 5728 5725 5722 5718 5715 5712 5709 5707 5704 5701 5698 5695 5692 5688 5684 5681